Regional Weather Roundup
Issued by NWS

Home | Current Version | Previous Version | Text Only | Print | Product List | Glossary Off
Versions: 1 2 3 4 5 6 7 8 9 10 11 12 13 14 15 16 17 18 19 20 21 22 23 24 25 26 27

000
ASUS45 KTFX 212010
RWRMT
MONTANA REGIONAL WEATHER ROUNDUP
NATIONAL WEATHER SERVICE GREAT FALLS MT
200 PM MDT MON AUG 21 2017

NOTE: "FAIR" INDICATES FEW OR NO CLOUDS BELOW 12000 FEET WITH NO
SIGNIFICANT WEATHER AND/OR OBSTRUCTIONS TO VISIBILITY.

MTZ001>007-043-212100-
WEST OF THE DIVIDE

CITY           SKY/WX    TMP DP  RH WIND       PRES   REMARKS
KALISPELL      SUNNY     74  41  30 VRB3      30.18F
MISSOULA       SUNNY     75  41  29 CALM      30.19F
BUTTE          SUNNY     71  32  23 NE6       30.27F
MULLAN PASS    SUNNY     67  35  30 CALM      30.32S
ANACONDA         N/A     70  36  28 N3        30.25F
DEER LODGE       N/A     72  37  28 CALM      30.26F
EUREKA           N/A     73  39  29 MISG      30.18F
HAMILTON         N/A     72  43  35 W3        30.21F
LIBBY            N/A     75  41  29 CALM      30.15F
RONAN            N/A     75  44  33 CALM      30.23S
$$

MTZ008-052>055-212100-
SOUTHWEST MONTANA

CITY           SKY/WX    TMP DP  RH WIND       PRES   REMARKS
BOZEMAN        SUNNY     75  31  19 VRB6      30.22F
DILLON         SUNNY     72  40  31 NW7       30.24F
W YELLOWSTONE  SUNNY     72  28  20 CALM      30.30F
ENNIS          SUNNY     72  32  23 VRB3      30.30S
THREE FORKS      N/A     76  34  21 NE1       30.18F
$$

MTZ009-010-012-014-046-048-049-054-212100-
EAST SLOPES AND CENTRAL MONTANA

CITY           SKY/WX    TMP DP  RH WIND       PRES   REMARKS
CUT BANK       SUNNY     70  33  25 E10       30.20F
GREAT FALLS    SUNNY     74  34  23 VRB6      30.20S
MALMSTROM AFB  SUNNY     74  35  24 N5        30.19F
HELENA         SUNNY     77  37  23 N6        30.18F
AUGUSTA          N/A     71  35  26 S7        30.22F
BOWMANS CRNR     N/A     71  35  25 W6        30.20F
CHOTEAU          N/A     72  34  25 NE6G12    30.22F
FAIRFIELD        N/A     72  33  24 SW5       30.19F
POWER            N/A     72  32  23 NE5       30.19F
RAYNESFORD       N/A     73  35  25 N7        30.20F
ULM              N/A     73  35  25 NW5       30.19F
$$

MTZ011-013-016-021-045-047-050-051-212100-
NORTH CENTRAL MONTANA

CITY           SKY/WX    TMP DP  RH WIND       PRES   REMARKS
HAVRE          SUNNY     75  36  24 NE10      30.18S
LEWISTOWN      SUNNY     73  33  23 W7        30.21S
N BAR RANCH      N/A     73  28  19 CALM      30.24F
CHINOOK          N/A     73  37  27 E6        30.18S
DENTON           N/A     73  34  23 N9        30.16S
GEYSER           N/A     73  35  24 N9        30.20S
GRASS RANGE      N/A     72  31  21 S6        30.17F
JUDITH GAP       N/A     72  36  26 N12G20    30.21F
WINIFRED         N/A     73  32  22 E10G16    30.19S
$$

MTZ017>020-022>027-061-062-212100-
NORTHEAST MONTANA

CITY           SKY/WX    TMP DP  RH WIND       PRES   REMARKS
GLASGOW        CLOUDY    73  36  25 N8        30.16S
JORDAN           N/A     75  32  20 N8        30.17S
SIDNEY         SUNNY     74  40  29 N14G23    30.12S
WOLF POINT     PTSUNNY   75  36  24 NW7G18    30.13S
MALTA          SUNNY     73  36  25 VRB3G12   30.17S
PLENTYWOOD       N/A     70  37  30 NW16G26   30.11S
$$

MTZ028>42-056>058-212100-
SOUTHCENTRAL AND SOUTHEAST MONTANA

CITY           SKY/WX    TMP DP  RH WIND       PRES   REMARKS
BAKER          SUNNY     76  34  21 NW14      30.15S
BILLINGS       MOSUNNY   76  31  19 E8        30.18S
LIVINGSTON     SUNNY     76  32  20 VRB6      30.21F
MILES CITY     SUNNY     80  32  17 N9        30.15S
BIG TIMBER     SUNNY     75  30  19 SE7       30.23F
HARLOWTON        N/A     73  32  21 MISG      30.20F
LAUREL           N/A     77  35  21 NE6       30.16F
$$

REGIONAL REPORTS...DAKOTAS

CITY           SKY/WX    TMP DP  RH WIND       PRES   REMARKS
WILLISTON      SUNNY     75  39  27 NW18      30.10S
MINOT          SUNNY     75  44  33 NW21G31   30.00R
DICKINSON      SUNNY     75  44  33 NW17G23   30.08S
BEACH            N/A     72  37  28 N18       30.17R
CROSBY           N/A     72  34  25 NW21G29   30.09S
TIOGA            N/A     70  36  28 N20G30    30.10R
WATFORD CITY     N/A     73  41  31 N14G22    30.09S
BISMARCK       SUNNY     77  49  37 NW21G33   29.99R
GRAND FORKS    LGT RAIN  71  57  61 E6        29.88F
FARGO          CLOUDY    73  60  63 SW10      29.88S
BUFFALO SD       N/A     78  37  22 N20       30.06S
RAPID CITY     MOSUNNY   77  46  33 N12       30.13R
$$

REGIONAL REPORTS...WYOMING/IDAHO/WASHINGTON

CITY           SKY/WX    TMP DP  RH WIND       PRES   REMARKS
GILLETTE       SUNNY     76  32  20 N9G18     30.19S
SHERIDAN       SUNNY     78  32  18 MISG      30.19F
BUFFALO WY     SUNNY     74  30  19 VRB5      30.24F
CODY           SUNNY     74  34  23 NE13      30.23F
YELLOWSTONE LA   N/A     66  39  37 VRB3      30.38S
IDAHO FALLS    SUNNY     76  36  23 SW7       30.20F
SALMON         SUNNY     73  36  25 CALM      30.19F
BOISE          SUNNY     80  42  25 NW9       30.12S
SPOKANE        MOSUNNY   78  44  29 NE6       30.16S
$$

REGIONAL REPORTS...ALBERTA

CITY           SKY/WX    TMP DP  RH WIND       PRES   REMARKS
EDMONTON       PTSUNNY   70  50  49 SW6       30.09F
CALGARY        MOSUNNY   68  41  37 S9        30.16F
LETHBRIDGE     MOSUNNY   72  39  30 SE7G17    30.17F
MEDICINE HAT   MOSUNNY   72  37  28 VRB3      30.17S
$$

REGIONAL REPORTS...SASKATCHEWAN

CITY           SKY/WX    TMP DP  RH WIND       PRES   REMARKS
SWIFT CURRENT  SUNNY     66  32  28 W6        30.17R
REGINA         MOSUNNY   70  37  30 NW20G29   30.09S
SASKATOON      PTSUNNY   72  37  28 W15G28    30.10F
$$




USA.gov is the U.S. government's official web portal to all federal, state and local government web resources and services.